Regional Weather Roundup
Issued by NWS

Home | Current Version | Previous Version | Text Only | Print | Product List | Glossary Off
Versions: 1 2 3 4 5 6 7 8 9 10 11 12 13 14 15 16 17 18 19 20 21 22 23 24 25 26 27 28 29 30 31 32 33 34 35 36 37 38 39 40 41 42 43 44 45 46 47 48 49 50

000
ASUS45 KBOU 101107
RWRCO

WEATHER ROUNDUP FOR COLORADO
NATIONAL WEATHER SERVICE DENVER/BOULDER CO
400 AM MST WED FEB 10 2016

NOTE: "FAIR" INDICATES FEW OR NO CLOUDS BELOW 12000 FEET WITH NO
SIGNIFICANT WEATHER AND/OR OBSTRUCTIONS TO VISIBILITY.

COZ001>005-013-030-031-101200-
...NORTHWEST COLORADO...

CITY           SKY/WX    TMP DP  RH WIND       PRES   REMARKS
CRAIG          CLOUDY    -3  -6  87 CALM      30.45F FOG
HAYDEN         CLOUDY    18  10  73 E13       30.43F WCI   4
MEEKER         CLOUDY     8   3  80 NE6       30.44F WCI  -2
MOUNT WERNER   NOT AVBL
STEAMBOAT SPGS CLOUDY    11  10  92 CALM      30.45F
WALDEN         CLOUDY     5  -2  72 SE10      30.42F WCI -10
$$

COZ006>008-011-101200-
...WEST CENTRAL VALLEYS...

CITY           SKY/WX    TMP DP  RH WIND       PRES   REMARKS
GRAND JUNCTION CLOUDY    19  17  92 E7        30.44F WCI  10
MONTROSE       CLEAR     20  13  74 S10       30.48F WCI   9
EAGLE          CLOUDY     9   7  92 CALM      30.55S
RIFLE          CLOUDY    16  11  80 SE3       30.49S
DELTA          CLEAR     24  19  82 NE5       30.48S WCI  18
NUCLA          CLEAR     23  16  74 E5        30.47F WCI  17
$$

COZ017>023-064>068-101200-
...SOUTHWEST COLORADO...

CITY           SKY/WX    TMP DP  RH WIND       PRES   REMARKS
DURANGO        CLOUDY    13   9  84 CALM      30.43S
CORTEZ         CLOUDY    19  15  84 E6        30.43F WCI  11
PAGOSA SPRINGS CLOUDY    17  12  82 NW3       30.44S
TELLURIDE      CLOUDY    29   3  34 SE8       30.50S WCI  21
WOLF CREEK PAS CLOUDY    28  -8  20 SW9       30.57S WCI  20
$$

COZ009-010-012-014-032>034-037-058>063-101200-
...CENTRAL COLORADO...

CITY           SKY/WX    TMP DP  RH WIND       PRES   REMARKS
ASPEN          CLOUDY    14   7  73 S9        30.46S WCI   2
BUENA VISTA    CLOUDY    22  10  59 W8        30.41F WCI  12
COPPER MTN     CLOUDY    32 -15  12 W20       30.50S WCI  20
BERTHOUD PASS  FAIR      19  10  68 NW33G43   30.45F WCI   0
COTTONWOOD PAS CLOUDY    36 -15  11 W7        30.43F
GUNNISON       CLOUDY   -11 -29  40 NE3       30.59S
KREMMLING      FOG      N/A N/A N/A CALM      30.55S VSB 1/4
LEADVILLE      CLOUDY    16  -3  43 E8        30.44F WCI   5
MONARCH PASS   CLOUDY    27  -4  26 W23       30.60S WCI  12
SALIDA         NOT AVBL
SUNLIGHT       CLOUDY    30   7  37 SW3         N/A
WILKERSON PASS CLOUDY    32  -9  16 NW12G25   30.45S WCI  23
$$

COZ069>075-101200-
...SAN LUIS VALLEY/SANGRE DE CRISTO MOUNTAINS...

CITY           SKY/WX    TMP DP  RH WIND       PRES   REMARKS
ALAMOSA        CLOUDY    14  10  84 E3        30.44S
LA VETA PASS   CLOUDY    27  12  54 S8        30.42F WCI  18
SAGUACHE       CLOUDY    27  10  50 NW7       30.45R WCI  19
$$

COZ035-036-038>040-101200-
...NORTHERN COLORADO FRONT RANGE...

CITY           SKY/WX    TMP DP  RH WIND       PRES   REMARKS
DENVER INTL AP CLOUDY    38  15  39 SW14      30.16S
DMNS CITY PARK   N/A     40  10  29 SE7G15    30.18S
AURORA         NOT AVBL
FRONT RANGE AP   N/A     37  14  38 SW14G20   30.16F
ERIE MUNI ARPT CLOUDY    49  12  22 W14G20    30.16S
BOULDER MUN AP CLOUDY    54  10  17 W29G39    30.14F
CENTENNIAL     CLOUDY    42  11  28 SW15      30.19F
BROOMFIELD     CLOUDY    52   9  17 NW21G28   30.17F
FORT COLLINS   CLOUDY    25  18  74 CALM      30.14S
LONGMONT       CLOUDY    39  13  34 W3        30.16F
$$

COZ041-046-047-076>085-087-088-101200-
...PIKES PEAK/PALMER DIVIDE AND SOUTHERN FOOTHILLS...

CITY           SKY/WX    TMP DP  RH WIND       PRES   REMARKS
COLO. SPRINGS  CLOUDY    35   9  33 NW8       30.23F WCI  29
A. F. ACADEMY  CLOUDY    31   7  36 E7        30.23F WCI  24
SCHRIEVER AFB  FAIR      46   6  19 W15G22    30.22F
ELLICOTT       NOT AVBL
FALCON         NOT AVBL
FORT CARSON    CLOUDY    31  10  40 N9        30.20F WCI  23
LIMON          CLOUDY    25  14  63 NW9       30.16F WCI  15
MONUMENT HILL  CLOUDY    34   5  29 SW12      30.25F WCI  25
TRINIDAD       CLOUDY    35  14  42 W18       30.25F WCI  24
$$

COZ042>045-048>051-090-091-101200-
...NORTHEAST COLORADO...

CITY           SKY/WX    TMP DP  RH WIND       PRES   REMARKS
GREELEY ARPT   CLOUDY    18  16  93 NW6       30.16R WCI   9
AKRON          CLOUDY    35  19  52 SW17      30.10F WCI  25
BURLINGTON     CLOUDY    31  20  63 W13       30.12F WCI  21
WRAY           CLOUDY    30  24  75 W10       30.08F WCI  21
STERLING       CLOUDY    27  23  86 S8        30.11S WCI  18
HOLYOKE        CLOUDY    34  27  75 W10       30.06F WCI  26
FORT MORGAN    CLOUDY    25  19  80 W5        30.13F WCI  19
$$

COZ086-089-092>099-101200-
...SOUTHEAST COLORADO...

CITY           SKY/WX    TMP DP  RH WIND       PRES   REMARKS
PUEBLO         CLOUDY    28  19  69 W7        30.20F WCI  21
LA JUNTA       CLOUDY    34  22  61 W12       30.18F WCI  25
LAMAR          CLOUDY    30  24  78 W13       30.16F WCI  20
SPRINGFIELD      N/A     26  19  74 SW5       30.17F WCI  20
$$



USA.gov is the U.S. government's official web portal to all federal, state and local government web resources and services.